Погода в Орле

Россия / Пермский край     59°20′25″N   56°35′15″E
темп.,
°C
ветер,
м/с
пор.,
м/с
влажн.,
%
обл.,
%
осадки,
мм/ч
давл.,
гПа
погр.,
м
7 марта, вс
вс723:00−15зюз229796 0.3 100953
02:00−18зюз229881 0.0 100920
05:00−20юз129984 0.1 101020
08:00−22юз119984 0.0 100920
11:00−16ююз129191 0.1 1009263
14:00−13юз1283100 0.0 1008639
17:00−13ююз1285100 0.1 1007500
20:00−18ю229597 0.0 100722
8 марта, пн
пн823:00−20ююв129862 0.0 100720
02:00−19юв229965 0.0 100623
05:00−19юв249982 0.1 100587
08:00−18юв3796100 0.1 1003247
11:00−14юв3793100 0.3 1001362
14:00−10ююв3691100 0.4 1000713
17:00−10юв3691100 0.8 998661
20:00−11всв3796100 0.3 996328
9 марта, вт
вт923:00−12всв4894100 1.0 997397
02:00−13ссв3795100 0.2 998276
05:00−15с3895100 0.3 1000292
08:00−15ссз3795100 0.1 1002324
11:00−15ссз4793100 0.2 1004400
14:00−14ссз3689100 0.0 1007498
17:00−15ссз368999 0.1 1009512
20:00−21ссз379794 0.0 1012152
10 марта, ср
ср1023:00−24с389758 0.0 1014201
02:00−28с37970 0.0 1016161
05:00−30с38950 0.0 1016221
08:00−32с39930 0.0 1016230
11:00−26с49900 0.0 1016349
14:00−20с59860 0.0 1015547
17:00−19с49861 0.0 1014561
20:00−23ссз37956 0.0 1015123
11 марта, чт
чт1123:00−25ссз229914 0.0 101621
02:00−25сз2210094 0.0 101524
05:00−26сз229994 0.1 101619
08:00−25зсз1299100 0.0 101620
11:00−19з1392100 0.1 1015301
14:00−14зюз2492100 0.1 1015417
17:00−10з3693100 0.6 1015498
20:00−8сз31191100 0.6 1015758